Regional Weather Roundup
Issued by NWS

Home | Current Version | Previous Version | Graphics & Text | Print | Product List | Glossary On
Versions: 1 2 3 4 5 6 7 8 9 10 11 12 13 14 15 16 17 18 19 20 21 22 23 24 25 26 27 28 29 30 31 32 33 34 35 36 37 38 39 40 41 42 43 44 45 46 47 48 49 50
000
ASUS44 KMEG 270110
RWRTN
TENNESSEE HOURLY STATE WEATHER ROUNDUP
NATIONAL WEATHER SERVICE MEMPHIS TN
800 PM CDT TUE JUL 26 2016

TNZ002-004-019-021-049-052-054-088>092-270200-
WEST TENNESSEE

CITY           SKY/WX    TMP DP  RH WIND       PRES   REMARKS
MEMPHIS INTL   PTCLDY    86  72  62 NW3       29.93S HX  92
NWS MEMPHIS      N/A     84 N/A N/A MISG        N/A
JACKSON        CLOUDY    79  76  90 NE7       29.97S
DYERSBURG      CLOUDY    81  72  74 MISG      29.95R
UNION CITY     PTCLDY    79  75  89 NW8       29.97R
PARIS          PTCLDY    79  70  73 SE5       29.99S
LEXINGTON      PTCLDY    79  70  73 W7        29.99R
$$

TNZ008-025-027-028-033-062-065-066-270200-
NORTH MIDDLE TENNESSEE

CITY           SKY/WX    TMP DP  RH WIND       PRES   REMARKS
NASHVILLE      CLOUDY    86  73  65 N5        29.98R HX  93
CLARKSVILLE    CLOUDY    82  70  66 SW8       29.98R
SMYRNA         CLEAR     85  76  74 CALM      29.98R HX  94
COOKEVILLE     CLEAR     82  77  83 NE3       30.00R HX  91
CROSSVILLE     PTCLDY    80  73  79 CALM      30.07R
$$

TNZ061-075-076-078-094-096-097-270200-
SOUTH MIDDLE TENNESSEE

CITY           SKY/WX    TMP DP  RH WIND       PRES   REMARKS
FAYETTEVILLE   CLOUDY    84  70  61 CALM      29.99R
TULLAHOMA      MOCLDY    81  68  65 NE3       30.02R
WINCHESTER     PTCLDY    84  73  70 CALM      30.00R HX  91
MCMINNVILLE    MOCLDY    84  75  74 W7        30.01R HX  92
COLUMBIA       PTCLDY    82  79  89 N3        29.98R HX  93
SHELBYVILLE    PTCLDY    82  72  69 E6        30.00R
$$

TNZ017-018-042-046-047-270200-
NORTHEAST TENNESSEE

CITY           SKY/WX    TMP DP  RH WIND       PRES   REMARKS
TRI CITIES     CLOUDY    79  69  71 SE6       30.05R
ELIZABETHTON   CLOUDY    75  72  88 NE3       30.06R
$$

TNZ012-013-036-069-073-074-270200-
CENTRAL EAST TENNESSEE

CITY           SKY/WX    TMP DP  RH WIND       PRES   REMARKS
KNOXVILLE      CLOUDY    87  69  54 W9        30.00R HX  91
OAK RIDGE      CLOUDY    88  70  55 S12G21    30.02R HX  93
GATLINBURG     CLEAR     81  72  74 S3        30.01R
MORRISTOWN     MOCLDY    86  72  62 SW6       30.02R HX  92
$$

TNZ083-085-099-270200-
SOUTHEAST TENNESSEE

CITY           SKY/WX    TMP DP  RH WIND       PRES   REMARKS
CHATTANOOGA    PTCLDY    89  69  51 CALM      29.98R HX  93
$$

SKY/WX REPORTED AS FAIR MEANS FEW OR NO CLOUDS BELOW
12 THOUSAND FEET.





USA.gov is the U.S. government's official web portal to all federal, state and local government web resources and services.